Weather History for Kaneohe MCBH, HI

Change the Weather History Date:

Saturday, November 3, 2012

  Actual Average Record
Temperature  
Mean Temperature 80 °F -  
Max Temperature 84 °F 79 °F 86 °F (2013)
Min Temperature 75 °F 71 °F 69 °F (1999)
Cooling Degree Days 14    
Growing Degree Days 30 (Base 50)    
Moisture  
Dew Point 65 °F    
Average Humidity 63    
Maximum Humidity 75    
Minimum Humidity 48    
Precipitation  
Precipitation 0.00 in - - ()
Sea Level Pressure  
Sea Level Pressure 29.94 in    
Wind  
Wind Speed 3 mph (SW)    
Max Wind Speed 9 mph    
Max Gust Speed -    
Visibility 10 miles    
Events      
Averages and records for this station are not official NWS values.
T = Trace of Precipitation, MM = Missing Value Source: NWS Daily Summary

Daily Weather History Graph

Daily Weather History Graph

Search for Another Location

Airport:

Trip Planner

Search our weather history database for the weather conditions in past years. The results will help you decide how hot, cold, wet, or windy it might be!

Date:

Astronomy

Nov. 03, 2012 Rise Set
Actual Time 6:35 AM HST 5:53 PM HST
Civil Twilight 6:12 AM HST 6:16 PM HST
Nautical Twilight 5:46 AM HST 6:42 PM HST
Astronomical Twilight 5:19 AM HST 7:09 PM HST
Moon 9:54 PM HST (11/3) 10:36 AM HST (11/3)
Length of Visible Light 12h 03m
Length of Day
11h 17m
Waning Gibbous, 78% of the Moon is Illuminated
Nov 3
Waning Gibbous
Nov 6
Last Quarter
Nov 13
New
Nov 20
First Quarter
Nov 28
Full

Hourly Weather History & Observations

Time (HST) Temp. Heat Index Dew Point Humidity Pressure Visibility Wind Dir Wind Speed Gust Speed Precip Events Conditions
12:57 AM 75.2 °F - 66.9 °F 75% 29.95 in 10.0 mi Calm Calm - N/A   Scattered Clouds
1:57 AM 75.2 °F - 66.0 °F 73% 29.94 in 10.0 mi Calm Calm - N/A   Scattered Clouds
2:57 AM 75.2 °F - 64.9 °F 70% 29.92 in 10.0 mi Calm Calm - N/A   Clear
3:57 AM 75.2 °F - 64.0 °F 68% 29.92 in 10.0 mi Calm Calm - N/A   Clear
4:57 AM 75.2 °F - 64.0 °F 68% 29.92 in 10.0 mi Calm Calm - N/A   Partly Cloudy
5:57 AM 75.2 °F - 64.0 °F 68% 29.93 in 10.0 mi SSE 3.5 mph - N/A   Clear
6:57 AM 75.2 °F - 64.9 °F 70% 29.94 in 10.0 mi Calm Calm - N/A   Clear
7:57 AM 77.0 °F - 64.0 °F 64% 29.96 in 10.0 mi SSW 4.6 mph - N/A   Clear
8:57 AM 78.8 °F - 67.5 °F 68% 29.97 in 10.0 mi SSW 5.8 mph - N/A   Partly Cloudy
9:57 AM 79.0 °F - 63.3 °F 59% 29.98 in 10.0 mi SSW 9.2 mph - N/A   Clear
10:57 AM 82.0 °F 83.6 °F 64.2 °F 55% 29.96 in 10.0 mi SSW 8.1 mph - N/A   Clear
11:57 AM 82.2 °F 83.7 °F 64.2 °F 54% 29.95 in 10.0 mi South 6.9 mph - N/A   Partly Cloudy
12:57 PM 84.9 °F 85.9 °F 63.3 °F 48% 29.93 in 10.0 mi South 6.9 mph - N/A   Scattered Clouds
1:57 PM 84.2 °F 85.0 °F 62.4 °F 48% 29.91 in 10.0 mi SSW 9.2 mph - N/A   Scattered Clouds
2:57 PM 83.5 °F 84.7 °F 63.7 °F 51% 29.90 in 10.0 mi NW 6.9 mph - N/A   Clear
3:57 PM 83.1 °F 84.8 °F 65.1 °F 54% 29.90 in 10.0 mi NNW 6.9 mph - N/A   Clear
4:57 PM 82.4 °F 83.5 °F 63.0 °F 52% 29.91 in 10.0 mi NNW 6.9 mph - N/A   Partly Cloudy
5:57 PM 82.4 °F 83.9 °F 64.0 °F 54% 29.93 in 10.0 mi NW 5.8 mph - N/A   Mostly Cloudy
6:57 PM 79.2 °F - 66.7 °F 66% 29.95 in 10.0 mi West 4.6 mph - N/A   Partly Cloudy
7:57 PM 77.2 °F - 66.4 °F 69% 29.97 in 10.0 mi WNW 3.5 mph - N/A   Overcast
8:57 PM 75.2 °F - 66.2 °F 73% 29.99 in 10.0 mi SSE 3.5 mph - N/A   Clear
9:57 PM 75.2 °F - 66.2 °F 73% 29.98 in 10.0 mi Calm Calm - N/A   Partly Cloudy
10:57 PM 75.2 °F - 64.4 °F 69% 29.98 in 10.0 mi Calm Calm - N/A   Partly Cloudy
11:57 PM 75.2 °F - 64.9 °F 70% 29.97 in 10.0 mi Calm Calm - N/A   Partly Cloudy